Location: Newark
(47.4417°N, 1.1394°W)
Time: 13:28:13
(UTC+00:00)

Envisat - Pass Details

Date: 24 November 2019
Orbit: 764 x 766 km, 98.1° (Epoch: 08 December)

Event Time Altitude Azimuth Distance (km) Brightness Sun altitude
Rises 17:30:33 0° 152° (SSE) 3,220 6.1 -11.7°
Reaches altitude 10° 17:32:52 10° 148° (SSE) 2,298 5.3 -12.0°
Maximum altitude 17:37:49 57° 71° (ENE) 899 3.0 -12.8°
Drops below altitude 10° 17:42:49 10° 354° (N) 2,313 5.4 -13.6°
Sets 17:45:09 0° 350° (N) 3,244 6.2 -14.0°
